Location: Ohmer (historical)
(38.0096°N, 122.0227°W)
Time: 13:21:10
(UTC+00:00)

CZ-2C R/B - Visible Passes

Search period start: 18 May 2026 00:00
Search period end: 28 May 2026 00:00
Orbit: 662 x 774 km, 98.5° (Epoch: 18 May)

Date Brightness Start Highest point End Pass type
(mag) Time Alt. Az. Time Alt. Az. Time Alt. Az.
18 May 2.9 12:10:41 10° NNE 12:15:09 55° E 12:19:37 10° S visible
19 May 4.9 11:21:37 10° NE 11:24:22 16° E 11:27:06 10° SE visible
20 May 3.1 12:07:41 10° NNE 12:12:07 51° E 12:16:33 10° S visible
21 May 4.9 11:18:48 10° ENE 11:21:19 15° E 11:23:49 10° SE visible
22 May 3.2 12:04:42 10° NNE 12:09:05 47° E 12:13:30 10° S visible
23 May 5.0 11:16:02 10° ENE 11:18:16 13° E 11:20:30 10° ESE visible
24 May 3.4 12:01:43 10° NNE 12:06:03 43° E 12:10:26 10° S visible
25 May 5.0 11:13:18 10° ENE 11:15:13 12° E 11:17:08 10° ESE visible
26 May 3.6 11:58:43 10° NNE 12:03:01 40° E 12:07:21 10° S visible
27 May 5.1 11:10:39 10° ENE 11:12:09 11° E 11:13:40 10° ESE visible
